Location: Newark
(31.5350°N, 35.0986°E)
Time: 17:48:14
(UTC+00:00)

SR - Pass Details

Date: 19 October 2019
Orbit: 573 x 882 km, 66.7° (Epoch: 21 November)

Event Time Altitude Azimuth Distance (km) Brightness Sun altitude
Rises 06:18:34 0° 321° (NW) 3,479 ? 29.2°
Reaches altitude 10° 06:21:22 10° 311° (NW) 2,541 ? 29.7°
Maximum altitude 06:26:24 30° 253° (WSW) 1,527 ? 30.6°
Drops below altitude 10° 06:31:19 10° 194° (SSW) 2,470 ? 31.4°
Sets 06:34:01 0° 184° (S) 3,366 ? 31.8°
